[[{"header":{"parameterUnit":"m.s-1","parameterCategory":2,"la1":30.2992,"la2":30.254,"lo1":-89.0895,"lo2":-89.0443,"dy":0.0025,"dx":0.0025,"nx":19,"ny":19,"refTime":"2026-04-26T21:00:00:Z","depth":"0","parameterNumber":2,"parameterNumberName":"U-component_of_CURRENTS"},"data":[0,0,0,0.1074,0.1075,0.1134,0.1135,0.1265,0.1266,0,0,0,0,0,0,0,0,0,0,0,0.105,0.1051,0.1073,0.1075,0.1134,0.1135,0.1264,0.1266,0,0,0,0,0,0,0,0,0,0,0,0.105,0.1051,0.1051,0.1075,0.1134,0.1135,0.1264,0.1208,0,0,0,0,0,0,0,0,0,0,0.1144,0.1103,0.1051,0.1051,0.1075,0.1134,0.1135,0.1205,0.1212,0.125,0,0.125,0,0.126,0.1275,0.1275,0,0,0,0.1084,0.1097,0.1121,0.1051,0.1075,0.1134,0.111,0.1208,0.1216,0.1259,0.1252,0.1257,0.1262,0.1276,0.1276,0.1346,0.1346,0,0,0.1081,0.1059,0.1115,0.1125,0.1081,0.1108,0.1112,0.1212,0.1213,0.1253,0.126,0.1264,0.1277,0.1278,0.1347,0.1346,0,0,0,0.1065,0.1056,0.1077,0.112,0.1126,0.1109,0.1114,0.1208,0.1217,0.1261,0.1266,0.1277,0.1279,0.1347,0.1347,0.1285,0,0,0,0.1063,0.1047,0.1075,0.1063,0.1124,0.1158,0.1107,0.121,0.1221,0.1265,0.1277,0.128,0.1347,0.1347,0.1287,0.1255,0,0,0,0.1049,0.1045,0.1051,0.1061,0.1084,0.1157,0.1171,0.1212,0.1225,0.1275,0.1281,0.1347,0.1347,0.1289,0.1259,0.1257,0,0,0,0.1029,0.1026,0.105,0.1048,0.1083,0.1109,0.117,0.1198,0.1234,0.1278,0.1347,0.1347,0.129,0.1261,0.1259,0.1222,0.121,0,0,0.1015,0.1024,0.1024,0.1046,0.1051,0.1102,0.1116,0.1189,0.1241,0.1321,0.1322,0.1287,0.1259,0.1258,0.1188,0.1177,0,0,0,0.1013,0.101,0.1016,0.1024,0.1052,0.1074,0.114,0.1172,0.1233,0.1259,0.1292,0.1277,0.1278,0.1259,0.1251,0.1068,0.1344,0.1344,0.1344,0.0969,0.0986,0.0977,0.0999,0.1015,0.1061,0.1086,0.1146,0.1203,0.1213,0.123,0.1191,0.117,0.1163,0.0974,0.1239,0.1238,0.1238,0.1238,0.0944,0.0937,0.095,0.0949,0.0972,0.099,0.1052,0.1087,0.114,0.118,0.1185,0.1199,0.115,0.0952,0.1234,0.1235,0.1235,0.1236,0.1236,0.0914,0.0911,0.0911,0.0909,0.0907,0.0944,0.0954,0.1009,0.108,0.1084,0.1101,0.1101,0.0927,0.1098,0.1098,0.1098,0.1098,0.1098,0.1098,0.0884,0.0884,0.0869,0.0868,0.0858,0.0858,0.0899,0.0925,0.0978,0.1029,0.1029,0.0878,0.1149,0.1154,0.1095,0.1096,0.1096,0.1096,0.1096,0.0842,0.0852,0.083,0.0817,0.0797,0.0764,0.0808,0.0833,0.0881,0.0899,0.0747,0.1013,0.1035,0.1043,0.1045,0.0962,0.0962,0.0962,0.0962,0.0813,0.0818,0.0786,0.0759,0.0734,0.072,0.0666,0.0669,0.0639,0.058,0.0585,0.0566,0.058,0.0575,0.0593,0.0586,0.0388,0.0387,0.0386,0.0779,0.0782,0.0742,0.0728,0.0698,0.066,0.0561,0.0428,0.0356,0.0344,0.0329,0.0354,0.031,0.0347,0.0334,0.0373,0.0364,0,0]},{"header":{"parameterUnit":"m.s-1","parameterCategory":2,"la1":30.2992,"la2":30.254,"lo1":-89.0895,"lo2":-89.0443,"dy":0.0025,"dx":0.0025,"nx":19,"ny":19,"refTime":"2026-04-26T21:00:00:Z","depth":"0","parameterNumber":3,"parameterNumberName":"V-component_of_CURRENTS"},"data":[0,0,0,0.01,0.01,0.007,0.0069,0.0065,0.0065,0,0,0,0,0,0,0,0,0,0,0,0.0115,0.0115,0.01,0.0099,0.007,0.0069,0.0065,0.0065,0,0,0,0,0,0,0,0,0,0,0,0.0115,0.0115,0.0115,0.0099,0.007,0.0069,0.0065,0.008,0,0,0,0,0,0,0,0,0,0,0.0105,0.0121,0.0115,0.0115,0.0099,0.007,0.0069,0.008,0.0079,0.0088,0,0.0084,0,0.0072,0.0065,0.0065,0,0,0,0.0102,0.0122,0.0105,0.0115,0.0099,0.007,0.0084,0.0079,0.0078,0.0086,0.0084,0.0083,0.0072,0.0065,0.0066,0.008,0.008,0,0,0.0103,0.0119,0.0106,0.0104,0.0093,0.0085,0.0083,0.0078,0.0084,0.0083,0.0083,0.0072,0.0066,0.0066,0.008,0.008,0,0,0,0.0107,0.0121,0.0103,0.0105,0.0095,0.0084,0.0081,0.0084,0.0075,0.0082,0.0072,0.0066,0.0066,0.008,0.008,0.0104,0,0,0,0.0108,0.0122,0.0104,0.0114,0.0095,0.0086,0.0088,0.0076,0.0075,0.0072,0.0066,0.0066,0.008,0.008,0.0103,0.012,0,0,0,0.0116,0.0123,0.0118,0.0115,0.0099,0.0086,0.0077,0.0075,0.0068,0.0065,0.0066,0.008,0.008,0.0102,0.0118,0.0161,0,0,0,0.0136,0.013,0.0118,0.0111,0.0099,0.0084,0.0077,0.007,0.0068,0.0066,0.008,0.008,0.0102,0.0117,0.016,0.0231,0.0244,0,0,0.0136,0.013,0.0125,0.0113,0.01,0.0088,0.0092,0.0085,0.0077,0.0084,0.0084,0.0104,0.0118,0.0161,0.0248,0.0261,0,0,0,0.0129,0.0124,0.0119,0.0109,0.0097,0.0103,0.0092,0.0094,0.0099,0.0076,0.0103,0.0112,0.0138,0.0177,0.0187,0.0226,0.0082,0.0082,0.0082,0.0151,0.0135,0.0128,0.0112,0.0112,0.0114,0.0125,0.0128,0.0113,0.012,0.0131,0.0179,0.022,0.0228,0.0266,0.0126,0.0126,0.0126,0.0126,0.0145,0.014,0.0133,0.0118,0.0128,0.0135,0.0156,0.0157,0.0187,0.0156,0.0181,0.0199,0.0241,0.0278,0.0128,0.0128,0.0128,0.0127,0.0127,0.0156,0.0153,0.0139,0.0129,0.0141,0.015,0.0187,0.0198,0.0213,0.0235,0.0289,0.0289,0.0324,0.0249,0.0249,0.0249,0.0249,0.025,0.025,0.0176,0.0162,0.0156,0.0142,0.0146,0.0166,0.0206,0.0244,0.0311,0.033,0.033,0.0352,0.0216,0.0215,0.0254,0.0253,0.0253,0.0252,0.0252,0.0186,0.0183,0.0174,0.0172,0.0179,0.022,0.0247,0.0357,0.0401,0.0457,0.05,0.0389,0.0395,0.0387,0.039,0.0472,0.0472,0.0472,0.0472,0.0205,0.0198,0.0201,0.0206,0.0222,0.0251,0.0359,0.0461,0.0574,0.063,0.0611,0.0596,0.0586,0.06,0.0588,0.0593,0.0725,0.0725,0.0726,0.0217,0.0215,0.0227,0.0226,0.0243,0.0299,0.0415,0.0539,0.0682,0.0736,0.0652,0.0642,0.0615,0.0595,0.061,0.0589,0.0594,0,0]}],[{"header":{"parameterUnit":"m.s-1","parameterCategory":2,"la1":30.2992,"la2":30.254,"lo1":-89.0895,"lo2":-89.0443,"dy":0.0025,"dx":0.0025,"nx":19,"ny":19,"refTime":"2026-04-26T21:00:00:Z","depth":"2","parameterNumber":2,"parameterNumberName":"U-component_of_CURRENTS"},"data":[0,0,0,0.1097,0.1096,0.1083,0.1083,0.1065,0.1065,0,0,0,0,0,0,0,0,0,0,0,0.1104,0.1104,0.1097,0.1096,0.1083,0.1083,0.1065,0.1065,0,0,0,0,0,0,0,0,0,0,0,0.1104,0.1104,0.1104,0.1096,0.1083,0.1083,0.1065,0.1076,0,0,0,0,0,0,0,0,0,0,0.1089,0.11,0.1104,0.1104,0.1096,0.1083,0.1083,0.1077,0.1075,0.1071,0,0.1069,0,0.1064,0.1064,0.1064,0,0,0,0.1098,0.1101,0.1092,0.1104,0.1096,0.1083,0.109,0.1076,0.1075,0.1069,0.1069,0.1068,0.1064,0.1064,0.1063,0.1087,0.1087,0,0,0.1099,0.1107,0.1093,0.1091,0.1093,0.109,0.1089,0.1075,0.1077,0.1069,0.1067,0.1064,0.1063,0.1063,0.1087,0.1087,0,0,0,0.11,0.1107,0.1099,0.1092,0.1088,0.109,0.1089,0.1078,0.1073,0.1067,0.1063,0.1063,0.1063,0.1086,0.1087,0.1104,0,0,0,0.11,0.1107,0.1099,0.1104,0.1089,0.1084,0.1092,0.1075,0.1073,0.1064,0.1063,0.1063,0.1086,0.1086,0.1102,0.1071,0,0,0,0.1105,0.1108,0.1105,0.1105,0.1097,0.1084,0.1079,0.1074,0.107,0.1064,0.1063,0.1085,0.1086,0.1101,0.1071,0.1074,0,0,0,0.1114,0.1105,0.1106,0.1092,0.1097,0.1076,0.1079,0.1077,0.1074,0.1063,0.1086,0.1087,0.11,0.107,0.1073,0.102,0.1018,0,0,0.1104,0.1104,0.1093,0.1093,0.1065,0.1078,0.1069,0.1075,0.1089,0.1089,0.109,0.1103,0.1071,0.1073,0.1077,0.1072,0,0,0,0.109,0.1083,0.1073,0.1061,0.1049,0.1051,0.106,0.1081,0.1115,0.109,0.1118,0.1097,0.1098,0.1066,0.1063,0.1091,0.1091,0.1091,0.1091,0.1066,0.1062,0.1042,0.1035,0.1031,0.1043,0.1055,0.109,0.1107,0.1145,0.1124,0.1149,0.1118,0.1115,0.1159,0.1159,0.1159,0.1159,0.1159,0.1035,0.102,0.1026,0.1007,0.1012,0.1014,0.1053,0.1087,0.1128,0.1151,0.1153,0.1101,0.1112,0.1161,0.1161,0.116,0.116,0.116,0.116,0.1007,0.1003,0.0997,0.0984,0.0981,0.0995,0.1002,0.1053,0.1118,0.1134,0.1109,0.1108,0.1131,0.1155,0.1155,0.1155,0.1155,0.1155,0.1155,0.098,0.0979,0.0961,0.0954,0.0942,0.0938,0.0973,0.0993,0.1048,0.1095,0.1095,0.1147,0.1147,0.1131,0.1154,0.1154,0.1154,0.1154,0.1154,0.0938,0.0947,0.092,0.0905,0.0879,0.0846,0.0885,0.0909,0.0955,0.0974,0.1075,0.1077,0.1056,0.1058,0.104,0.1037,0.1037,0.1037,0.1037,0.0909,0.0913,0.0874,0.0844,0.0815,0.0801,0.075,0.073,0.0817,0.0835,0.0843,0.0833,0.0844,0.081,0.0818,0.0794,0.0727,0.0726,0.0725,0.0874,0.0875,0.083,0.0812,0.0778,0.0742,0.0652,0.0473,0.0471,0.0709,0.0746,0.1025,0.1035,0.1041,0.101,0.1014,0.0984,0,0]},{"header":{"parameterUnit":"m.s-1","parameterCategory":2,"la1":30.2992,"la2":30.254,"lo1":-89.0895,"lo2":-89.0443,"dy":0.0025,"dx":0.0025,"nx":19,"ny":19,"refTime":"2026-04-26T21:00:00:Z","depth":"2","parameterNumber":3,"parameterNumberName":"V-component_of_CURRENTS"},"data":[0,0,0,-0.0215,-0.0216,-0.0269,-0.0269,-0.0302,-0.0302,0,0,0,0,0,0,0,0,0,0,0,-0.0194,-0.0194,-0.0215,-0.0216,-0.0269,-0.0269,-0.0302,-0.0302,0,0,0,0,0,0,0,0,0,0,0,-0.0194,-0.0194,-0.0194,-0.0216,-0.0269,-0.0269,-0.0302,-0.0272,0,0,0,0,0,0,0,0,0,0,-0.0225,-0.0193,-0.0194,-0.0194,-0.0216,-0.0268,-0.0269,-0.0271,-0.0273,-0.0267,0,-0.0273,0,-0.0287,-0.0303,-0.0303,0,0,0,-0.0219,-0.0191,-0.0221,-0.0194,-0.0217,-0.0268,-0.0246,-0.0272,-0.0276,-0.0271,-0.0274,-0.0275,-0.0288,-0.0303,-0.0304,-0.0284,-0.0283,0,0,-0.0216,-0.0189,-0.0218,-0.0223,-0.0226,-0.0244,-0.0247,-0.0275,-0.0266,-0.0274,-0.0276,-0.0289,-0.0304,-0.0304,-0.0284,-0.0284,0,0,0,-0.0206,-0.0186,-0.0216,-0.0221,-0.0233,-0.0246,-0.0249,-0.0265,-0.0279,-0.0277,-0.0289,-0.0304,-0.0304,-0.0284,-0.0284,-0.0223,0,0,0,-0.0204,-0.0181,-0.0215,-0.0197,-0.0232,-0.025,-0.0238,-0.0277,-0.0281,-0.0289,-0.0304,-0.0304,-0.0285,-0.0284,-0.0226,-0.0192,0,0,0,-0.0192,-0.0179,-0.0188,-0.0195,-0.0219,-0.025,-0.0266,-0.0279,-0.0288,-0.0303,-0.0304,-0.0285,-0.0284,-0.0228,-0.0197,-0.0139,0,0,0,-0.0159,-0.0168,-0.0186,-0.02,-0.0219,-0.0245,-0.0266,-0.0281,-0.0291,-0.0304,-0.0285,-0.0284,-0.0229,-0.0199,-0.0142,-0.0102,-0.0085,0,0,-0.0157,-0.0167,-0.0179,-0.0198,-0.022,-0.0238,-0.0233,-0.0257,-0.0275,-0.0275,-0.0275,-0.0225,-0.0197,-0.0139,-0.0055,-0.0039,0,0,0,-0.0171,-0.0175,-0.0186,-0.0202,-0.0226,-0.0215,-0.0239,-0.0236,-0.0229,-0.0278,-0.0225,-0.0209,-0.0175,-0.0158,-0.0145,-0.028,-0.028,-0.028,-0.028,-0.0096,-0.014,-0.0149,-0.019,-0.0194,-0.0197,-0.0181,-0.0176,-0.0202,-0.0181,-0.016,-0.0076,-0.0057,-0.0047,-0.0165,-0.0165,-0.0165,-0.0164,-0.0164,-0.0082,-0.0097,-0.0118,-0.0142,-0.0136,-0.0118,-0.0107,-0.0107,-0.0061,-0.0104,-0.0073,-0.0096,-0.003,-0.016,-0.016,-0.0161,-0.0162,-0.0162,-0.0162,-0.0038,-0.0057,-0.0066,-0.0088,-0.0059,-0.0056,-0.0011,-0.0004,0.0006,0.0036,0.0062,0.0061,-0.0027,0.0059,0.0059,0.006,0.006,0.006,0.0061,0.0005,-0.0016,-0.0013,-0.0032,-0.0016,0.0016,0.0052,0.009,0.0144,0.0141,0.0141,-0.0,-0.0007,-0.0014,0.0067,0.0066,0.0065,0.0064,0.0064,0.001,0.0022,0.0014,0.0024,0.0042,0.0082,0.0111,0.0209,0.0251,0.0296,0.0201,0.0195,0.0184,0.0173,0.0171,0.0295,0.0295,0.0295,0.0295,0.0036,0.0032,0.0044,0.0059,0.0082,0.0111,0.02,0.0264,0.0315,0.0315,0.0314,0.026,0.0251,0.0238,0.0226,0.0222,0.036,0.036,0.036,0.0044,0.0048,0.0066,0.0078,0.0102,0.0153,0.0234,0.026,0.0285,0.0358,0.0279,0.0309,0.0222,0.021,0.0182,0.0166,0.0155,0,0]}],[{"header":{"parameterUnit":"m.s-1","parameterCategory":2,"la1":30.2992,"la2":30.254,"lo1":-89.0895,"lo2":-89.0443,"dy":0.0025,"dx":0.0025,"nx":19,"ny":19,"refTime":"2026-04-26T21:00:00:Z","depth":"4","parameterNumber":2,"parameterNumberName":"U-component_of_CURRENTS"},"data":[0,0,0,-0.0382,-0.0382,-0.0337,-0.0336,-0.0333,-0.0334,0,0,0,0,0,0,0,0,0,0,0,-0.0392,-0.0392,-0.0382,-0.0382,-0.0337,-0.0336,-0.0333,-0.0334,0,0,0,0,0,0,0,0,0,0,0,-0.0392,-0.0392,-0.0393,-0.0382,-0.0337,-0.0336,-0.0333,-0.0346,0,0,0,0,0,0,0,0,0,0,-0.038,-0.0379,-0.0392,-0.0393,-0.0382,-0.0337,-0.0336,-0.0346,-0.0346,-0.0379,0,-0.0388,0,-0.038,-0.0338,-0.0338,0,0,0,-0.0352,-0.0379,-0.0389,-0.0393,-0.0382,-0.0337,-0.0349,-0.0345,-0.0345,-0.0379,-0.0388,-0.0388,-0.038,-0.0338,-0.0338,-0.0364,-0.0364,0,0,-0.0354,-0.036,-0.0389,-0.0389,-0.0394,-0.035,-0.0348,-0.0344,-0.0343,-0.0388,-0.0387,-0.038,-0.0338,-0.0339,-0.0364,-0.0364,0,0,0,-0.0382,-0.0362,-0.0368,-0.039,-0.0388,-0.035,-0.0347,-0.0342,-0.0351,-0.0387,-0.038,-0.0339,-0.0339,-0.0364,-0.0364,-0.0259,0,0,0,-0.0382,-0.0381,-0.037,-0.0369,-0.0388,-0.0355,-0.0345,-0.035,-0.035,-0.038,-0.0339,-0.034,-0.0364,-0.0364,-0.0262,-0.0246,0,0,0,-0.039,-0.038,-0.0387,-0.037,-0.0367,-0.0354,-0.036,-0.0349,-0.0348,-0.0338,-0.034,-0.0364,-0.0364,-0.0265,-0.0251,-0.0281,0,0,0,-0.038,-0.0389,-0.0387,-0.0393,-0.0368,-0.0351,-0.0359,-0.0313,-0.0296,-0.0339,-0.0364,-0.0364,-0.0266,-0.0253,-0.0282,-0.0344,0,0,0,-0.0385,-0.0389,-0.0393,-0.0391,-0.0379,-0.0354,-0.0321,-0.0288,-0.031,-0.0365,-0.0365,-0.0261,-0.0251,-0.0281,-0.0322,0,0,0,0,-0.039,-0.0394,-0.0392,-0.0383,-0.0371,-0.0322,-0.0296,-0.0293,-0.0265,-0.0308,-0.0283,-0.0282,-0.0304,-0.0345,-0.0362,-0.0362,-0.0362,-0.0362,-0.0362,-0.0375,-0.0376,-0.0369,-0.036,-0.0337,-0.0288,-0.0257,-0.0252,-0.0258,-0.0222,-0.021,-0.0185,-0.0222,-0.0214,-0.0214,-0.0213,-0.0213,-0.0213,-0.0212,-0.0374,-0.0369,-0.0346,-0.0324,-0.0276,-0.0223,-0.0206,-0.0176,-0.0171,-0.0164,-0.0189,-0.0248,-0.0202,-0.0204,-0.0206,-0.0207,-0.0208,-0.0208,-0.0209,-0.0359,-0.0357,-0.0332,-0.0289,-0.0205,-0.0146,-0.013,-0.0085,-0.0097,-0.0084,-0.017,-0.0154,-0.015,-0.0082,-0.0082,-0.0082,-0.0082,-0.0082,-0.0082,-0.0347,-0.0339,-0.031,-0.0249,-0.0188,-0.0112,-0.0059,-0.0109,-0.0105,-0.0097,-0.0055,-0.0144,-0.0148,-0.0147,-0.0083,-0.0083,-0.0083,-0.0083,-0.0083,-0.0342,-0.0341,-0.032,-0.0273,-0.0187,-0.0161,-0.0094,-0.0156,-0.0203,-0.0268,-0.0141,-0.0138,-0.0205,-0.0209,-0.0212,-0.0165,-0.0165,-0.0166,0,-0.0341,-0.0342,-0.0334,-0.0305,-0.0276,-0.0209,-0.025,-0.0297,-0.0303,-0.0233,-0.0305,-0.016,-0.0157,-0.0237,-0.0241,-0.0247,0,0,0,-0.034,-0.035,-0.0343,-0.0339,-0.0313,-0.0311,-0.027,-0.0281,-0.0197,-0.035,-0.0181,-0.0177,-0.0301,-0.0084,-0.0182,-0.0187,-0.0191,0,0]},{"header":{"parameterUnit":"m.s-1","parameterCategory":2,"la1":30.2992,"la2":30.254,"lo1":-89.0895,"lo2":-89.0443,"dy":0.0025,"dx":0.0025,"nx":19,"ny":19,"refTime":"2026-04-26T21:00:00:Z","depth":"4","parameterNumber":3,"parameterNumberName":"V-component_of_CURRENTS"},"data":[0,0,0,0.0556,0.056,0.0704,0.0704,0.0637,0.0636,0,0,0,0,0,0,0,0,0,0,0,0.0466,0.0467,0.0556,0.0561,0.0704,0.0704,0.0637,0.0636,0,0,0,0,0,0,0,0,0,0,0,0.0465,0.0467,0.0468,0.0562,0.0704,0.0704,0.0637,0.0582,0,0,0,0,0,0,0,0,0,0,0.047,0.0487,0.0466,0.0468,0.0563,0.0704,0.0704,0.0582,0.0586,0.0512,0,0.054,0,0.0616,0.0629,0.0629,0,0,0,0.0523,0.0485,0.0487,0.0468,0.0565,0.0704,0.0629,0.0586,0.059,0.0516,0.0541,0.0541,0.0615,0.0629,0.0628,0.0524,0.0524,0,0,0.0515,0.0521,0.0485,0.049,0.0604,0.0625,0.0634,0.0591,0.0611,0.0541,0.0542,0.0614,0.0628,0.0627,0.0525,0.0524,0,0,0,0.0518,0.0515,0.0524,0.0489,0.0552,0.063,0.064,0.0613,0.0606,0.0542,0.0613,0.0628,0.0626,0.0525,0.0525,0.0531,0,0,0,0.0511,0.052,0.052,0.0529,0.0555,0.0636,0.0663,0.0607,0.0608,0.0613,0.0628,0.0625,0.0526,0.0525,0.0531,0.0543,0,0,0,0.0459,0.0517,0.0525,0.0528,0.0609,0.0638,0.0631,0.061,0.0651,0.0629,0.0625,0.0526,0.0525,0.0532,0.0544,0.0527,0,0,0,0.0467,0.0472,0.0525,0.0557,0.0608,0.0647,0.0633,0.0656,0.0639,0.0627,0.0526,0.0525,0.0532,0.0544,0.0527,0.0441,0,0,0,0.0461,0.0473,0.0483,0.0534,0.0604,0.0624,0.0645,0.0615,0.0593,0.0516,0.0516,0.0531,0.0544,0.0527,0.0387,0,0,0,0,0.0472,0.0489,0.0516,0.0582,0.0618,0.0641,0.0645,0.0616,0.0561,0.0592,0.0511,0.0518,0.0508,0.0457,0.052,0.052,0.052,0.0521,0.0521,0.0473,0.0499,0.0542,0.0579,0.0605,0.0637,0.0614,0.0566,0.0548,0.0516,0.0508,0.0479,0.0424,0.0485,0.0485,0.0485,0.0485,0.0485,0.0485,0.0458,0.0472,0.0537,0.0585,0.0617,0.062,0.0568,0.0547,0.049,0.0485,0.0474,0.0448,0.0485,0.0485,0.0485,0.0485,0.0485,0.0485,0.0485,0.0433,0.0443,0.0506,0.0578,0.0608,0.0608,0.0567,0.0535,0.0495,0.0481,0.0416,0.0477,0.0494,0.0475,0.0475,0.0475,0.0475,0.0475,0.0475,0.0374,0.0436,0.0486,0.0557,0.0602,0.0606,0.057,0.0516,0.0476,0.0412,0.0486,0.0476,0.0476,0.0492,0.0474,0.0474,0.0474,0.0474,0.0474,0.0314,0.0375,0.0429,0.0492,0.0569,0.055,0.0566,0.0438,0.0383,0.03,0.0362,0.0368,0.0358,0.0361,0.0373,0.0319,0.0318,0.0316,0,0.0278,0.0302,0.0388,0.045,0.0475,0.0504,0.0412,0.0353,0.028,0.0287,0.0351,0.0427,0.0429,0.0422,0.0423,0.0439,0,0,0,0.0244,0.0277,0.0307,0.039,0.0418,0.0365,0.037,0.0304,0.0357,0.0207,0.0287,0.0295,0.0364,0.0473,0.047,0.0471,0.0497,0,0]}]]